When you browse on this site, cookies collect data to enhance your experience and personalize the content and advertising you see.
Visit our Privacy Policy to learn more. By continuing to use the site, you agree to this use of cookies and data.
  • In Hungary
  • List of Countries
  • For 7 days
  • Water Temperature
  • Weather Map
  • News
  • Weather Widgets
  • user-avatar
    Login

    Hourly Weather Yasenove

    Today, 12 December, Thursday

    Time Temperature Precipitation Wind Pressure Humidity
    00:00 -1°C° 0 mm 3 mps 750 mmHg 90%
    01:00 -1°C° 0 mm 3 mps 750 mmHg 91%
    02:00 -1°C° 0 mm 3 mps 750 mmHg 91%
    03:00 -1°C° 0 mm 3 mps 750 mmHg 92%
    04:00 -1°C° 0 mm 3 mps 750 mmHg 92%
    05:00 -2°C° 0 mm 3 mps 749 mmHg 92%
    06:00 -1°C° 0 mm 3 mps 750 mmHg 92%
    07:00 -1°C° 0 mm 3 mps 750 mmHg 92%
    08:00 -1°C° 0 mm 3 mps 750 mmHg 92%
    09:00 -1°C° 0 mm 4 mps 750 mmHg 88%
    10:00 0°C° 0 mm 4 mps 749 mmHg 84%
    11:00 +1°C° 0 mm 4 mps 749 mmHg 80%
    12:00 +1°C° 0 mm 5 mps 749 mmHg 80%
    13:00 +1°C° 0 mm 5 mps 749 mmHg 81%
    14:00 +1°C° 0 mm 5 mps 748 mmHg 82%
    15:00 +1°C° 0 mm 5 mps 748 mmHg 83%
    16:00 0°C° 0 mm 5 mps 748 mmHg 85%
    17:00 0°C° 0 mm 4 mps 748 mmHg 86%
    18:00 0°C° 0 mm 5 mps 748 mmHg 86%
    19:00 0°C° 0 mm 5 mps 748 mmHg 86%
    20:00 0°C° 0 mm 5 mps 748 mmHg 86%
    21:00 -1°C° 0 mm 5 mps 747 mmHg 86%
    22:00 -1°C° 0 mm 5 mps 747 mmHg 87%
    23:00 -2°C° 0 mm 4 mps 747 mmHg 87%

    Tomorrow, 13 December, Friday

    Time Temperature Precipitation Wind Pressure Humidity
    00:00 -1°C° 0 mm 5 mps 746 mmHg 86%
    01:00 -1°C° 0 mm 5 mps 746 mmHg 86%
    02:00 -2°C° 0 mm 6 mps 746 mmHg 85%
    03:00 -2°C° 0 mm 6 mps 746 mmHg 84%
    04:00 -2°C° 0 mm 6 mps 745 mmHg 83%
    05:00 -2°C° 0 mm 6 mps 745 mmHg 83%
    06:00 -2°C° 0 mm 7 mps 745 mmHg 83%
    07:00 -2°C° 0 mm 7 mps 745 mmHg 83%
    08:00 -2°C° 0 mm 8 mps 745 mmHg 83%
    09:00 -1°C° 0 mm 8 mps 745 mmHg 80%
    10:00 -1°C° 0 mm 8 mps 745 mmHg 77%
    11:00 0°C° 0 mm 8 mps 744 mmHg 75%
    12:00 0°C° 0 mm 8 mps 744 mmHg 74%
    13:00 0°C° 0 mm 8 mps 744 mmHg 73%
    14:00 0°C° 0 mm 8 mps 744 mmHg 72%
    15:00 0°C° 0 mm 8 mps 744 mmHg 74%
    16:00 -1°C° 0 mm 8 mps 743 mmHg 76%
    17:00 -1°C° 0 mm 8 mps 743 mmHg 77%
    18:00 -1°C° 0 mm 7 mps 743 mmHg 77%
    19:00 -1°C° 0 mm 7 mps 743 mmHg 76%
    20:00 0°C° 0 mm 7 mps 743 mmHg 76%
    21:00 -1°C° 0 mm 7 mps 743 mmHg 78%
    22:00 -1°C° 0 mm 6 mps 743 mmHg 80%
    23:00 -1°C° 0 mm 6 mps 743 mmHg 83%

    Day after tomorrow, 14 December, Saturday

    Time Temperature Precipitation Wind Pressure Humidity
    00:00 -1°C° 0 mm 6 mps 743 mmHg 83%
    01:00 -1°C° 0 mm 7 mps 743 mmHg 84%
    02:00 -1°C° 0 mm 7 mps 743 mmHg 84%
    03:00 -1°C° 0.5 mm 7 mps 742 mmHg 86%
    04:00 -1°C° 0.5 mm 7 mps 742 mmHg 88%
    05:00 0°C° 0.5 mm 7 mps 742 mmHg 90%
    06:00 0°C° 0.3 mm 7 mps 742 mmHg 90%
    07:00 0°C° 0.3 mm 7 mps 743 mmHg 91%
    08:00 +1°C° 0.3 mm 8 mps 743 mmHg 91%
    09:00 +2°C° 0.1 mm 7 mps 743 mmHg 87%
    10:00 +3°C° 0.1 mm 7 mps 743 mmHg 83%
    11:00 +4°C° 0.1 mm 7 mps 743 mmHg 79%
    12:00 +4°C° 0 mm 7 mps 743 mmHg 77%
    13:00 +4°C° 0 mm 6 mps 744 mmHg 74%
    14:00 +5°C° 0 mm 6 mps 744 mmHg 72%
    15:00 +4°C° 0 mm 6 mps 744 mmHg 76%
    16:00 +4°C° 0 mm 6 mps 744 mmHg 80%
    17:00 +3°C° 0 mm 5 mps 744 mmHg 85%
    18:00 +3°C° 0.4 mm 6 mps 744 mmHg 86%
    19:00 +4°C° 0.4 mm 6 mps 745 mmHg 88%
    20:00 +4°C° 0.4 mm 6 mps 745 mmHg 90%
    21:00 +4°C° 1.1 mm 6 mps 745 mmHg 91%
    22:00 +5°C° 1.1 mm 5 mps 745 mmHg 92%
    23:00 +5°C° 1.1 mm 5 mps 745 mmHg 93%

    15 December, Sunday

    Time Temperature Precipitation Wind Pressure Humidity
    00:00 +5°C° 0.7 mm 5 mps 745 mmHg 93%
    01:00 +5°C° 0.7 mm 4 mps 745 mmHg 94%
    02:00 +5°C° 0.7 mm 4 mps 745 mmHg 94%
    03:00 +5°C° 0.1 mm 4 mps 745 mmHg 93%
    04:00 +5°C° 0.1 mm 4 mps 745 mmHg 92%
    05:00 +4°C° 0.1 mm 4 mps 746 mmHg 92%
    06:00 +4°C° 0 mm 3 mps 746 mmHg 92%
    07:00 +4°C° 0 mm 3 mps 746 mmHg 93%
    08:00 +4°C° 0 mm 3 mps 746 mmHg 93%
    09:00 +4°C° 0 mm 3 mps 746 mmHg 90%
    10:00 +5°C° 0 mm 3 mps 747 mmHg 86%
    11:00 +7°C° 0 mm 3 mps 747 mmHg 83%
    12:00 +7°C° 0 mm 2 mps 747 mmHg 82%
    13:00 +8°C° 0 mm 2 mps 747 mmHg 81%
    14:00 +8°C° 0 mm 2 mps 747 mmHg 80%
    15:00 +8°C° 0.1 mm 2 mps 747 mmHg 84%
    16:00 +7°C° 0.1 mm 2 mps 748 mmHg 88%
    17:00 +7°C° 0.1 mm 2 mps 748 mmHg 92%
    18:00 +7°C° 0.3 mm 2 mps 748 mmHg 94%
    19:00 +7°C° 0.3 mm 2 mps 749 mmHg 95%
    20:00 +7°C° 0.3 mm 2 mps 749 mmHg 97%
    21:00 +6°C° 0 mm 2 mps 749 mmHg 96%
    22:00 +6°C° 0 mm 2 mps 750 mmHg 96%
    23:00 +5°C° 0 mm 2 mps 750 mmHg 95%

    16 December, Monday

    Time Temperature Precipitation Wind Pressure Humidity
    00:00 +5°C° 0 mm 2 mps 750 mmHg 95%
    01:00 +4°C° 0 mm 2 mps 751 mmHg 95%
    02:00 +5°C° 0 mm 1 mps 751 mmHg 95%
    03:00 +5°C° 0 mm 1 mps 751 mmHg 93%
    04:00 +4°C° 0 mm 1 mps 751 mmHg 92%
    05:00 +4°C° 0 mm 1 mps 752 mmHg 91%
    06:00 +4°C° 0 mm 1 mps 752 mmHg 90%
    07:00 +4°C° 0 mm 1 mps 752 mmHg 89%
    08:00 +3°C° 0 mm 0 mps 753 mmHg 88%
    09:00 +5°C° 0 mm 1 mps 753 mmHg 83%
    10:00 +6°C° 0 mm 1 mps 754 mmHg 78%
    11:00 +7°C° 0 mm 1 mps 754 mmHg 73%
    12:00 +6°C° 0 mm 2 mps 754 mmHg 73%
    13:00 +7°C° 0 mm 2 mps 754 mmHg 72%
    14:00 +7°C° 0 mm 2 mps 753 mmHg 71%
    15:00 +6°C° 0 mm 2 mps 754 mmHg 75%
    16:00 +6°C° 0 mm 1 mps 754 mmHg 79%
    17:00 +5°C° 0 mm 1 mps 754 mmHg 82%
    18:00 +4°C° 0 mm 2 mps 754 mmHg 83%
    19:00 +4°C° 0 mm 2 mps 754 mmHg 84%
    20:00 +4°C° 0 mm 2 mps 754 mmHg 84%
    21:00 +4°C° 0 mm 2 mps 754 mmHg 85%
    22:00 +3°C° 0 mm 2 mps 754 mmHg 85%
    23:00 +3°C° 0 mm 2 mps 754 mmHg 86%

    17 December, Tuesday

    Time Temperature Precipitation Wind Pressure Humidity
    00:00 +3°C° 0 mm 2 mps 754 mmHg 87%
    01:00 +3°C° 0 mm 2 mps 754 mmHg 88%
    02:00 +3°C° 0 mm 2 mps 754 mmHg 89%
    03:00 +3°C° 0 mm 2 mps 754 mmHg 89%
    04:00 +3°C° 0 mm 2 mps 753 mmHg 90%
    05:00 +2°C° 0 mm 2 mps 753 mmHg 91%
    06:00 +2°C° 0 mm 3 mps 753 mmHg 91%
    07:00 +2°C° 0 mm 3 mps 753 mmHg 91%
    08:00 +2°C° 0 mm 3 mps 753 mmHg 91%
    09:00 +3°C° 0 mm 3 mps 753 mmHg 87%
    10:00 +4°C° 0 mm 4 mps 753 mmHg 82%
    11:00 +6°C° 0 mm 4 mps 753 mmHg 77%
    12:00 +6°C° 0 mm 4 mps 753 mmHg 77%
    13:00 +7°C° 0 mm 4 mps 753 mmHg 77%
    14:00 +7°C° 0 mm 4 mps 752 mmHg 77%
    15:00 +7°C° 0 mm 3 mps 752 mmHg 81%
    16:00 +7°C° 0 mm 3 mps 752 mmHg 86%
    17:00 +5°C° 0 mm 3 mps 753 mmHg 91%
    18:00 +5°C° 0 mm 3 mps 752 mmHg 92%
    19:00 +4°C° 0 mm 3 mps 752 mmHg 93%
    20:00 +5°C° 0 mm 2 mps 752 mmHg 94%
    21:00 +5°C° 0 mm 2 mps 752 mmHg 94%
    22:00 +5°C° 0 mm 2 mps 753 mmHg 93%
    23:00 +5°C° 0 mm 2 mps 753 mmHg 93%
    Show more